Weather WX

World > North America > United States > Missouri

Cedar Gap, Missouri Regional Weather

Lat: 37.15N, Lon: 92.77W
Wx Zone: MOZ091
Warning FLW WEATHER ALERT - (More Info. Click Here) Warning
Feedback

Cedar Gap, MO Regional Weather

Expires:201906260500;;086727
ASUS43 KLSX 260407
RWRMO 

WEATHER SUMMARY FOR MISSOURI
NATIONAL WEATHER SERVICE SPRINGFIELD MO
1100 PM CDT TUE JUN 25 2019

NOTE: "FAIR" INDICATES FEW OR NO CLOUDS BELOW 12,000 FEET WITH NO
       SIGNIFICANT WEATHER AND/OR OBSTRUCTIONS TO VISIBILITY.
       CURRENT SKY AND/OR WEATHER CONDITIONS ARE NOT AVAILABLE FOR
       CHILLICOTHE AND FARMINGTON.


MOZ066>068-077>081-088>096-101>105-260500-
...SOUTHWEST MISSOURI...
  
CITY           SKY/WX    TMP DP  RH WIND       PRES   REMARKS
SPRINGFIELD    CLEAR     76  68  76 S7        30.06R                  
JOPLIN         CLEAR     77  71  82 SE6       30.04R                  
BRANSON        CLEAR     75  70  83 CALM      30.09R                  
               
$$

SKY/WX - Weather  TMP - Temperature  DP - Dew Point  RH - Relative Humidity
WIND - Wind Direction/Speed PRES - Barometric Pressure VSB - Visibility
WCI - Wind Chill Index E13G22 Wind - East Wind 13 mph/Gusts of 22 mph